Date,TemperatureHighF,TemperatureAvgF,TemperatureLowF,DewpointHighF,DewpointAvgF,DewpointLowF,HumidityHigh,HumidityAvg,HumidityLow,PressureMaxIn,PressureMinIn,WindSpeedMaxMPH,WindSpeedAvgMPH,GustSpeedMaxMPH,PrecipitationSumIn
2013-2-1,59.7,40.4,27.0,23.8,19.4,15.5,67,46,21,24.65,24.50,17,6,17,0.00
2013-2-2,63.0,48.3,37.4,26.4,20.0,12.6,61,34,18,24.68,24.61,14,6,14,0.00
2013-2-3,53.4,44.0,33.3,30.9,21.7,15.1,57,43,23,24.65,24.37,15,6,15,0.00
2013-2-4,56.1,42.0,35.1,31.6,26.4,20.5,73,55,30,24.45,24.37,23,12,23,0.00
2013-2-5,64.0,47.6,34.2,27.6,19.1,7.6,57,35,17,24.45,24.35,20,6,20,0.00
2013-2-6,60.4,42.9,29.8,26.2,19.8,14.7,63,41,22,24.37,24.27,15,6,15,0.00
2013-2-7,58.6,45.0,36.9,28.3,22.7,6.8,61,43,22,24.49,24.36,17,7,17,0.00
2013-2-8,54.0,39.8,34.0,22.8,20.0,16.6,54,45,26,24.46,24.26,15,9,15,0.00
2013-2-9,53.8,36.8,27.5,26.8,13.8,3.7,69,42,21,24.19,24.04,36,20,36,0.45
2013-2-10,43.5,35.9,26.2,22.6,12.3,3.9,79,40,22,24.30,24.19,21,9,21,0.00
2013-2-11,48.6,33.9,20.8,25.6,17.7,5.9,86,57,20,24.34,24.25,22,8,22,0.00
2013-2-12,31.5,25.6,21.0,18.8,11.6,5.9,72,56,35,24.48,24.29,24,12,24,0.00
2013-2-13,47.1,33.8,21.4,15.9,9.8,5.4,53,38,22,24.48,24.38,28,12,28,0.00
2013-2-14,47.7,33.9,25.2,21.5,16.7,12.6,62,50,30,24.53,24.41,28,9,28,0.00
2013-2-15,45.9,33.5,23.7,22.4,12.0,2.6,73,44,21,24.65,24.53,24,9,24,0.00
2013-2-16,61.3,49.0,30.9,18.7,12.3,3.3,38,23,18,24.70,24.51,18,7,18,0.00
2013-2-17,62.2,51.8,40.5,18.2,13.1,6.4,24,21,18,24.51,24.13,24,11,24,0.00
2013-2-18,52.2,41.3,31.5,18.1,7.6,-1.7,49,25,20,24.42,24.20,26,13,26,0.01
2013-2-19,34.0,32.1,30.2,-0.3,-1.4,-2.3,24,23,21,24.42,24.39,13,8,13,0.00
2013-2-20,53.1,40.9,32.2,36.4,27.3,-1.2,84,62,23,24.38,23.95,28,12,28,0.00
2013-2-21,33.1,32.1,31.5,27.2,25.5,22.4,83,76,67,24.02,23.96,22,9,22,0.00
2013-2-23,52.5,43.0,32.0,23.0,10.2,3.1,69,27,21,24.36,24.02,24,8,24,0.00
2013-2-24,40.8,33.5,28.0,23.1,9.5,-1.1,71,39,22,24.24,24.04,37,20,37,0.25
2013-2-25,48.7,35.1,23.4,14.9,8.5,-4.2,57,35,20,24.39,24.24,28,14,28,0.00
2013-2-26,48.2,31.8,20.8,16.3,4.9,-5.3,51,33,20,24.29,24.21,30,8,30,0.00
2013-2-27,49.3,37.0,21.4,12.7,3.5,-8.7,46,24,20,24.56,24.21,25,8,25,0.00
2013-2-28,36.7,28.6,23.7,0.8,-4.2,-8.8,25,23,21,24.60,24.53,12,6,12,0.00